| time (UTC) | temp F | wind direction | speed MPH | gust MPH | rain 1hr in | rain 24hr in | rain mn in | humidity % | barometer mb |
| 20260507221525 | 69 | 113 | 0.0 | 4.0 | 0.00 | 0.00 | 0.00 | 67 | 1014.8 |
| 20260507221025 | 69 | 78 | 1.0 | 4.0 | 0.00 | 0.00 | 0.00 | 67 | 1014.7 |
| 20260507220525 | 68 | 118 | 1.0 | 3.0 | 0.00 | 0.00 | 0.00 | 66 | 1014.7 |
| 20260507220024 | 68 | 23 | 0.0 | 9.0 | 0.00 | 0.00 | 0.00 | 67 | 1014.8 |
| 20260507215524 | 68 | 5 | 9.0 | 9.0 | 0.00 | 0.00 | 0.00 | 67 | 1014.8 |
| 20260507214524 | 68 | 344 | 2.0 | 5.0 | 0.00 | 0.00 | 0.00 | 67 | 1014.4 |
| 20260507214024 | 68 | 12 | 1.0 | 4.0 | 0.00 | 0.00 | 0.00 | 67 | 1014.5 |
| 20260507213525 | 68 | 360 | 2.0 | 4.0 | 0.00 | 0.00 | 0.00 | 68 | 1014.6 |
| 20260507212524 | 68 | 355 | 2.0 | 3.0 | 0.00 | 0.00 | 0.00 | 68 | 1014.6 |
| 20260507212024 | 68 | 119 | 2.0 | 6.0 | 0.00 | 0.00 | 0.00 | 68 | 1014.9 |
| 20260507211524 | 68 | 89 | 4.0 | 6.0 | 0.00 | 0.00 | 0.00 | 68 | 1014.8 |
| 20260507211024 | 68 | 118 | 1.0 | 5.0 | 0.00 | 0.00 | 0.00 | 68 | 1014.9 |
| 20260507210524 | 68 | 88 | 1.0 | 6.0 | 0.00 | 0.00 | 0.00 | 68 | 1014.8 |
| 20260507210024 | 68 | 55 | 6.0 | 7.0 | 0.00 | 0.00 | 0.00 | 69 | 1014.6 |
| 20260507205524 | 68 | 20 | 4.0 | 7.0 | 0.00 | 0.00 | 0.00 | 69 | 1014.6 |
| 20260507205024 | 68 | 105 | 0.0 | 8.0 | 0.00 | 0.00 | 0.00 | 69 | 1014.5 |
| 20260507204524 | 68 | 336 | 5.0 | 8.0 | 0.00 | 0.00 | 0.00 | 70 | 1014.6 |
| 20260507204024 | 67 | 107 | 3.0 | 6.0 | 0.00 | 0.00 | 0.00 | 70 | 1014.8 |
| 20260507203524 | 67 | 93 | 1.0 | 7.0 | 0.00 | 0.00 | 0.00 | 71 | 1015.1 |
| 20260507203023 | 67 | 178 | 2.0 | 8.0 | 0.00 | 0.00 | 0.00 | 71 | 1015.1 |
| 20260507202524 | 67 | 12 | 3.0 | 8.0 | 0.00 | 0.00 | 0.00 | 71 | 1015.1 |
| 20260507201523 | 67 | 121 | 1.0 | 6.0 | 0.00 | 0.00 | 0.00 | 71 | 1015.5 |
| 20260507200523 | 67 | 41 | 6.0 | 10.0 | 0.00 | 0.00 | 0.00 | 73 | 1015.1 |
| 20260507200023 | 67 | 338 | 8.0 | 8.0 | 0.00 | 0.00 | 0.00 | 73 | 1015.3 |
| 20260507195524 | 66 | 55 | 2.0 | 8.0 | 0.00 | 0.00 | 0.00 | 74 | 1015.3 |
| 20260507195023 | 66 | 283 | 1.0 | 8.0 | 0.00 | 0.00 | 0.00 | 74 | 1015.5 |
| 20260507193523 | 65 | 113 | 3.0 | 6.0 | 0.00 | 0.00 | 0.00 | 75 | 1015.7 |
| 20260507193023 | 65 | 340 | 3.0 | 6.0 | 0.00 | 0.00 | 0.00 | 76 | 1015.5 |
| 20260507192523 | 65 | 138 | 2.0 | 5.0 | 0.00 | 0.00 | 0.00 | 76 | 1015.3 |
| 20260507192023 | 65 | 348 | 4.0 | 4.0 | 0.00 | 0.00 | 0.00 | 75 | 1015.6 |
| 20260507191523 | 65 | 116 | 2.0 | 3.0 | 0.00 | 0.00 | 0.00 | 75 | 1015.9 |
| 20260507191023 | 65 | 95 | 1.0 | 3.0 | 0.00 | 0.00 | 0.00 | 74 | 1015.8 |
| 20260507190523 | 66 | 59 | 1.0 | 2.0 | 0.00 | 0.00 | 0.00 | 73 | 1015.9 |
| 20260507190023 | 66 | 348 | 1.0 | 3.0 | 0.00 | 0.00 | 0.00 | 74 | 1016.2 |
| 20260507185523 | 66 | 126 | 1.0 | 5.0 | 0.00 | 0.00 | 0.00 | 73 | 1016.2 |
| 20260507185023 | 66 | 337 | 3.0 | 5.0 | 0.00 | 0.00 | 0.00 | 74 | 1016.3 |
| 20260507184523 | 66 | 5 | 3.0 | 4.0 | 0.00 | 0.00 | 0.00 | 74 | 1016.3 |
| 20260507184023 | 66 | 53 | 1.0 | 8.0 | 0.00 | 0.00 | 0.00 | 74 | 1016.4 |
| 20260507183023 | 66 | 92 | 1.0 | 4.0 | 0.00 | 0.00 | 0.00 | 75 | 1016.6 |
| 20260507182523 | 65 | 151 | 0.0 | 8.0 | 0.00 | 0.00 | 0.00 | 75 | 1016.8 |
| 20260507182022 | 65 | 148 | 2.0 | 8.0 | 0.00 | 0.00 | 0.00 | 75 | 1016.8 |
| 20260507181523 | 65 | 155 | 2.0 | 5.0 | 0.00 | 0.00 | 0.00 | 75 | 1016.5 |
| 20260507180523 | 64 | 175 | 1.0 | 3.0 | 0.00 | 0.00 | 0.00 | 76 | 1016.0 |
| 20260507180022 | 64 | 118 | 1.0 | 7.0 | 0.00 | 0.00 | 0.00 | 76 | 1015.8 |
| 20260507175523 | 64 | 303 | 2.0 | 7.0 | 0.00 | 0.00 | 0.00 | 76 | 1015.8 |
| 20260507174522 | 63 | 15 | 2.0 | 3.0 | 0.00 | 0.00 | 0.00 | 77 | 1016.3 |
| 20260507174022 | 63 | 151 | 1.0 | 6.0 | 0.00 | 0.00 | 0.00 | 78 | 1016.3 |
| 20260507173522 | 62 | 107 | 2.0 | 6.0 | 0.00 | 0.00 | 0.00 | 78 | 1016.1 |
| 20260507173022 | 62 | 330 | 3.0 | 5.0 | 0.00 | 0.00 | 0.00 | 78 | 1016.3 |
| 20260507172522 | 62 | 298 | 5.0 | 5.0 | 0.00 | 0.00 | 0.00 | 79 | 1016.2 |
| 20260507172022 | 62 | 138 | 2.0 | 5.0 | 0.00 | 0.00 | 0.00 | 79 | 1015.9 |
| 20260507171522 | 62 | 113 | 4.0 | 5.0 | 0.00 | 0.00 | 0.00 | 79 | 1016.4 |
| 20260507171022 | 62 | 147 | 0.0 | 3.0 | 0.00 | 0.00 | 0.00 | 79 | 1017.0 |
| 20260507170522 | 62 | 59 | 1.0 | 4.0 | 0.00 | 0.00 | 0.00 | 80 | 1017.2 |
| 20260507170022 | 62 | 126 | 2.0 | 4.0 | 0.00 | 0.00 | 0.00 | 80 | 1017.1 |
| 20260507165522 | 62 | 151 | 0.0 | 7.0 | 0.00 | 0.00 | 0.00 | 80 | 1017.2 |
| 20260507164522 | 62 | 89 | 2.0 | 4.0 | 0.00 | 0.00 | 0.00 | 80 | 1017.1 |
| 20260507164021 | 62 | 133 | 4.0 | 4.0 | 0.00 | 0.00 | 0.00 | 80 | 1017.3 |
| 20260507163522 | 62 | 355 | 3.0 | 8.0 | 0.00 | 0.00 | 0.00 | 81 | 1017.3 |
| 20260507163021 | 62 | 19 | 2.0 | 8.0 | 0.00 | 0.00 | 0.00 | 80 | 1016.9 |
| 20260507162522 | 62 | 34 | 6.0 | 6.0 | 0.00 | 0.00 | 0.00 | 80 | 1016.8 |
| 20260507162021 | 62 | 155 | 2.0 | 7.0 | 0.00 | 0.00 | 0.00 | 80 | 1017.3 |
| 20260507160522 | 62 | 160 | 4.0 | 9.0 | 0.00 | 0.00 | 0.00 | 80 | 1016.9 |
| 20260507160022 | 62 | 316 | 4.0 | 9.0 | 0.00 | 0.00 | 0.00 | 80 | 1016.7 |
| 20260507155521 | 62 | 315 | 3.0 | 8.0 | 0.00 | 0.00 | 0.00 | 80 | 1017.0 |
| 20260507155021 | 62 | 336 | 2.0 | 8.0 | 0.00 | 0.00 | 0.00 | 80 | 1017.0 |
| 20260507154021 | 62 | 334 | 3.0 | 5.0 | 0.00 | 0.00 | 0.00 | 80 | 1017.1 |
| 20260507153521 | 62 | 40 | 0.0 | 4.0 | 0.00 | 0.00 | 0.00 | 81 | 1017.4 |
| 20260507153021 | 62 | 351 | 3.0 | 4.0 | 0.00 | 0.00 | 0.00 | 81 | 1017.4 |
| 20260507152521 | 62 | 96 | 2.0 | 11.0 | 0.00 | 0.00 | 0.00 | 81 | 1017.4 |
| 20260507151521 | 62 | 117 | 4.0 | 9.0 | 0.00 | 0.00 | 0.00 | 81 | 1017.3 |
| 20260507151021 | 62 | 94 | 2.0 | 4.0 | 0.00 | 0.00 | 0.00 | 81 | 1017.3 |
| 20260507150521 | 62 | 144 | 2.0 | 5.0 | 0.00 | 0.00 | 0.00 | 81 | 1017.3 |
| 20260507150020 | 62 | 360 | 2.0 | 9.0 | 0.00 | 0.00 | 0.00 | 81 | 1017.2 |
| 20260507145521 | 62 | 330 | 6.0 | 9.0 | 0.00 | 0.00 | 0.00 | 81 | 1017.3 |
| 20260507145020 | 62 | 316 | 5.0 | 11.0 | 0.00 | 0.00 | 0.00 | 81 | 1017.0 |
| 20260507144520 | 62 | 334 | 9.0 | 11.0 | 0.00 | 0.00 | 0.00 | 81 | 1017.0 |
| 20260507144020 | 62 | 102 | 3.0 | 11.0 | 0.00 | 0.00 | 0.00 | 81 | 1017.0 |
| 20260507143020 | 62 | 49 | 1.0 | 6.0 | 0.00 | 0.00 | 0.00 | 81 | 1017.1 |
| 20260507142520 | 62 | 336 | 5.0 | 6.0 | 0.00 | 0.00 | 0.00 | 81 | 1016.9 |
| 20260507142020 | 62 | 344 | 5.0 | 6.0 | 0.00 | 0.00 | 0.00 | 82 | 1017.2 |
| 20260507141520 | 62 | 78 | 0.0 | 3.0 | 0.00 | 0.00 | 0.00 | 82 | 1017.3 |
| 20260507141020 | 62 | 355 | 2.0 | 5.0 | 0.00 | 0.00 | 0.00 | 82 | 1016.8 |
| 20260507140520 | 62 | 340 | 5.0 | 6.0 | 0.00 | 0.00 | 0.00 | 82 | 1016.5 |
| 20260507140020 | 62 | 321 | 3.0 | 10.0 | 0.00 | 0.00 | 0.00 | 82 | 1016.7 |
| 20260507135520 | 62 | 360 | 10.0 | 10.0 | 0.00 | 0.00 | 0.00 | 82 | 1017.1 |
| 20260507135020 | 62 | 138 | 3.0 | 9.0 | 0.00 | 0.00 | 0.00 | 82 | 1016.9 |
| 20260507134520 | 62 | 327 | 1.0 | 7.0 | 0.00 | 0.00 | 0.00 | 82 | 1016.8 |
| 20260507134019 | 62 | 27 | 3.0 | 7.0 | 0.00 | 0.00 | 0.00 | 82 | 1016.5 |
| 20260507132520 | 61 | 40 | 1.0 | 5.0 | 0.00 | 0.00 | 0.00 | 82 | 1016.2 |
| 20260507132019 | 61 | 355 | 2.0 | 6.0 | 0.00 | 0.00 | 0.00 | 82 | 1016.2 |
| 20260507131519 | 61 | 338 | 1.0 | 6.0 | 0.00 | 0.00 | 0.00 | 82 | 1016.0 |
| 20260507131020 | 61 | 348 | 2.0 | 6.0 | 0.00 | 0.00 | 0.00 | 82 | 1016.1 |
| 20260507130019 | 61 | 327 | 4.0 | 8.0 | 0.00 | 0.00 | 0.00 | 82 | 1016.4 |
| 20260507125519 | 61 | 337 | 0.0 | 8.0 | 0.00 | 0.00 | 0.00 | 82 | 1016.2 |
| 20260507125019 | 61 | 348 | 6.0 | 8.0 | 0.00 | 0.00 | 0.00 | 82 | 1016.2 |
| 20260507124519 | 61 | 102 | 4.0 | 8.0 | 0.00 | 0.00 | 0.00 | 82 | 1016.3 |
| 20260507124019 | 61 | 106 | 2.0 | 5.0 | 0.00 | 0.00 | 0.00 | 82 | 1016.2 |
| 20260507123019 | 61 | 25 | 1.0 | 4.0 | 0.00 | 0.00 | 0.00 | 82 | 1016.3 |
| 20260507122519 | 61 | 166 | 1.0 | 8.0 | 0.00 | 0.00 | 0.00 | 82 | 1016.0 |
| 20260507122019 | 61 | 21 | 4.0 | 8.0 | 0.00 | 0.00 | 0.00 | 82 | 1016.0 |
| 20260507121519 | 61 | 212 | 2.0 | 11.0 | 0.00 | 0.00 | 0.00 | 82 | 1015.8 |
| 20260507120519 | 61 | 349 | 4.0 | 8.0 | 0.00 | 0.00 | 0.00 | 82 | 1015.5 |
| 20260507120019 | 61 | 35 | 5.0 | 8.0 | 0.00 | 0.00 | 0.00 | 82 | 1015.5 |
| 20260507115519 | 61 | 55 | 1.0 | 8.0 | 0.00 | 0.00 | 0.00 | 82 | 1015.3 |
| 20260507114518 | 61 | 338 | 8.0 | 10.0 | 0.00 | 0.00 | 0.00 | 82 | 1015.3 |
| 20260507114018 | 61 | 113 | 2.0 | 14.0 | 0.00 | 0.00 | 0.00 | 82 | 1015.2 |
| 20260507113518 | 61 | 59 | 10.0 | 14.0 | 0.00 | 0.00 | 0.00 | 82 | 1015.2 |
| 20260507113018 | 61 | 333 | 3.0 | 4.0 | 0.00 | 0.00 | 0.00 | 82 | 1015.4 |
| 20260507112018 | 61 | 28 | 0.0 | 6.0 | 0.00 | 0.00 | 0.00 | 82 | 1015.2 |
| 20260507110518 | 61 | 331 | 1.0 | 11.0 | 0.00 | 0.00 | 0.00 | 82 | 1015.3 |
| 20260507110018 | 61 | 82 | 1.0 | 11.0 | 0.00 | 0.00 | 0.00 | 82 | 1015.0 |
| 20260507105518 | 61 | 5 | 1.0 | 8.0 | 0.00 | 0.00 | 0.00 | 82 | 1015.3 |
| 20260507105018 | 61 | 336 | 8.0 | 8.0 | 0.00 | 0.00 | 0.00 | 82 | 1015.4 |
| 20260507104518 | 61 | 345 | 3.0 | 6.0 | 0.00 | 0.00 | 0.00 | 81 | 1015.4 |
| 20260507104018 | 61 | 317 | 6.0 | 6.0 | 0.00 | 0.00 | 0.00 | 81 | 1015.1 |
| 20260507103518 | 61 | 337 | 1.0 | 7.0 | 0.00 | 0.00 | 0.00 | 81 | 1015.1 |
| 20260507103018 | 61 | 11 | 1.0 | 7.0 | 0.00 | 0.00 | 0.00 | 81 | 1014.8 |
| 20260507102518 | 61 | 86 | 0.0 | 4.0 | 0.00 | 0.00 | 0.00 | 81 | 1014.8 |
| 20260507101518 | 62 | 232 | 4.0 | 4.0 | 0.00 | 0.00 | 0.00 | 81 | 1014.7 |
| 20260507101018 | 62 | 273 | 3.0 | 5.0 | 0.00 | 0.00 | 0.00 | 81 | 1014.9 |
| 20260507100518 | 62 | 115 | 0.0 | 5.0 | 0.00 | 0.00 | 0.00 | 81 | 1014.7 |
| 20260507095018 | 62 | 360 | 4.0 | 6.0 | 0.00 | 0.00 | 0.00 | 81 | 1014.9 |
| 20260507094017 | 62 | 97 | 0.0 | 10.0 | 0.00 | 0.00 | 0.00 | 81 | 1014.5 |
| 20260507093517 | 62 | 40 | 2.0 | 10.0 | 0.00 | 0.00 | 0.00 | 81 | 1014.7 |
| 20260507093018 | 62 | 351 | 3.0 | 5.0 | 0.00 | 0.00 | 0.00 | 80 | 1014.5 |
| 20260507092517 | 62 | 303 | 4.0 | 5.0 | 0.00 | 0.00 | 0.00 | 80 | 1014.4 |
| 20260507092017 | 62 | 331 | 3.0 | 4.0 | 0.00 | 0.00 | 0.00 | 80 | 1014.5 |
| 20260507091517 | 62 | 101 | 1.0 | 8.0 | 0.00 | 0.00 | 0.00 | 80 | 1014.5 |
| 20260507091017 | 62 | 29 | 1.0 | 8.0 | 0.00 | 0.00 | 0.00 | 80 | 1014.3 |
| 20260507090517 | 62 | 336 | 2.0 | 4.0 | 0.00 | 0.00 | 0.00 | 80 | 1014.4 |
| 20260507090017 | 62 | 333 | 3.0 | 3.0 | 0.00 | 0.00 | 0.00 | 80 | 1014.3 |
| 20260507085517 | 62 | 355 | 0.0 | 3.0 | 0.00 | 0.00 | 0.00 | 80 | 1014.3 |
| 20260507085017 | 62 | 41 | 0.0 | 4.0 | 0.00 | 0.00 | 0.00 | 80 | 1014.4 |
| 20260507084517 | 62 | 110 | 0.0 | 4.0 | 0.00 | 0.00 | 0.00 | 80 | 1014.2 |
| 20260507084017 | 62 | 74 | 1.0 | 3.0 | 0.00 | 0.00 | 0.00 | 80 | 1014.1 |
| 20260507083516 | 62 | 86 | 0.0 | 3.0 | 0.00 | 0.00 | 0.00 | 80 | 1014.2 |
| 20260507082516 | 62 | 128 | 0.0 | 4.0 | 0.00 | 0.00 | 0.00 | 80 | 1014.3 |
| 20260507082017 | 62 | 11 | 2.0 | 3.0 | 0.00 | 0.00 | 0.00 | 80 | 1014.4 |
| 20260507081517 | 62 | 59 | 1.0 | 3.0 | 0.00 | 0.00 | 0.00 | 80 | 1014.1 |
| 20260507081016 | 62 | 310 | 2.0 | 3.0 | 0.00 | 0.00 | 0.00 | 80 | 1014.0 |
| 20260507080517 | 62 | 342 | 0.0 | 3.0 | 0.00 | 0.00 | 0.00 | 80 | 1013.9 |
| 20260507080017 | 62 | 78 | 1.0 | 3.0 | 0.00 | 0.00 | 0.00 | 80 | 1013.8 |
| 20260507075517 | 63 | 80 | 0.0 | 3.0 | 0.00 | 0.00 | 0.00 | 80 | 1014.0 |
| 20260507075016 | 62 | 46 | 0.0 | 4.0 | 0.00 | 0.00 | 0.00 | 80 | 1014.2 |
| 20260507074516 | 63 | 150 | 1.0 | 4.0 | 0.00 | 0.00 | 0.00 | 80 | 1013.8 |
| 20260507074016 | 63 | 48 | 2.0 | 6.0 | 0.00 | 0.00 | 0.00 | 80 | 1013.9 |
| 20260507073016 | 63 | 355 | 2.0 | 4.0 | 0.00 | 0.00 | 0.00 | 79 | 1013.7 |
| 20260507072016 | 63 | 187 | 4.0 | 5.0 | 0.00 | 0.00 | 0.00 | 79 | 1014.2 |
| 20260507071516 | 63 | 329 | 2.0 | 3.0 | 0.00 | 0.00 | 0.00 | 79 | 1013.7 |
| 20260507071016 | 63 | 98 | 3.0 | 4.0 | 0.00 | 0.00 | 0.00 | 79 | 1013.8 |
| 20260507070016 | 63 | 262 | 3.0 | 3.0 | 0.00 | 0.00 | 0.00 | 79 | 1014.1 |
| 20260507065516 | 63 | 110 | 2.0 | 7.0 | 0.00 | 0.00 | 0.00 | 79 | 1014.3 |
| 20260507065016 | 63 | 87 | 1.0 | 7.0 | 0.00 | 0.00 | 0.00 | 79 | 1014.0 |
| 20260507064516 | 63 | 165 | 1.0 | 6.0 | 0.00 | 0.00 | 0.00 | 79 | 1014.2 |
| 20260507064016 | 63 | 123 | 3.0 | 6.0 | 0.00 | 0.00 | 0.00 | 79 | 1014.3 |
| 20260507063516 | 63 | 103 | 3.0 | 9.0 | 0.00 | 0.00 | 0.00 | 79 | 1014.2 |
| 20260507063016 | 63 | 273 | 7.0 | 9.0 | 0.00 | 0.00 | 0.00 | 79 | 1014.0 |
| 20260507061515 | 63 | 99 | 6.0 | 12.0 | 0.00 | 0.00 | 0.00 | 78 | 1013.9 |
| 20260507061015 | 63 | 144 | 1.0 | 4.0 | 0.00 | 0.00 | 0.00 | 78 | 1014.0 |
| 20260507060516 | 63 | 114 | 2.0 | 6.0 | 0.00 | 0.00 | 0.00 | 78 | 1013.9 |
| 20260507060015 | 63 | 5 | 2.0 | 6.0 | 0.00 | 0.00 | 0.00 | 78 | 1013.8 |
| 20260507055515 | 64 | 330 | 1.0 | 4.0 | 0.00 | 0.00 | 0.00 | 78 | 1013.6 |
| 20260507055015 | 64 | 96 | 2.0 | 4.0 | 0.00 | 0.00 | 0.00 | 78 | 1013.7 |
| 20260507054515 | 64 | 113 | 3.0 | 3.0 | 0.00 | 0.00 | 0.00 | 78 | 1013.8 |
| 20260507054015 | 64 | 86 | 1.0 | 6.0 | 0.00 | 0.00 | 0.00 | 78 | 1013.9 |
| 20260507053515 | 64 | 261 | 2.0 | 6.0 | 0.00 | 0.00 | 0.00 | 78 | 1013.9 |
| 20260507053015 | 64 | 86 | 1.0 | 5.0 | 0.00 | 0.00 | 0.00 | 78 | 1013.7 |
| 20260507052515 | 64 | 94 | 4.0 | 5.0 | 0.00 | 0.00 | 0.00 | 78 | 1013.9 |
| 20260507051515 | 64 | 322 | 3.0 | 8.0 | 0.00 | 0.00 | 0.00 | 78 | 1013.4 |
| 20260507051014 | 64 | 346 | 2.0 | 5.0 | 0.00 | 0.00 | 0.00 | 78 | 1013.6 |
| 20260507050514 | 64 | 76 | 2.0 | 5.0 | 0.00 | 0.00 | 0.00 | 78 | 1013.5 |
| 20260507050014 | 64 | 207 | 2.0 | 5.0 | 0.00 | 0.00 | 0.00 | 78 | 1013.6 |
| 20260507045515 | 64 | 125 | 2.0 | 6.0 | 0.00 | 0.00 | 0.00 | 78 | 1013.7 |
| 20260507044514 | 64 | 123 | 1.0 | 5.0 | 0.00 | 0.00 | 0.00 | 78 | 1013.6 |
| 20260507044014 | 64 | 11 | 2.0 | 5.0 | 0.00 | 0.00 | 0.00 | 78 | 1013.4 |
| 20260507043514 | 64 | 96 | 3.0 | 6.0 | 0.00 | 0.00 | 0.00 | 78 | 1013.7 |
| 20260507043014 | 64 | 84 | 1.0 | 6.0 | 0.00 | 0.00 | 0.00 | 78 | 1013.7 |
| 20260507042514 | 64 | 333 | 2.0 | 6.0 | 0.00 | 0.00 | 0.00 | 78 | 1013.8 |
| 20260507042014 | 64 | 25 | 1.0 | 6.0 | 0.00 | 0.00 | 0.00 | 78 | 1013.7 |
| 20260507041514 | 64 | 325 | 1.0 | 5.0 | 0.00 | 0.00 | 0.00 | 78 | 1013.6 |
| 20260507041013 | 64 | 327 | 2.0 | 9.0 | 0.00 | 0.00 | 0.00 | 78 | 1013.5 |
| 20260507040513 | 64 | 344 | 2.0 | 9.0 | 0.00 | 0.00 | 0.00 | 78 | 1013.3 |
| 20260507035513 | 64 | 314 | 3.0 | 7.0 | 0.00 | 0.00 | 0.00 | 78 | 1013.4 |
| 20260507035013 | 65 | 339 | 3.0 | 7.0 | 0.00 | 0.00 | 0.00 | 78 | 1013.9 |
| 20260507034513 | 65 | 27 | 3.0 | 6.0 | 0.00 | 0.00 | 0.00 | 78 | 1013.7 |
| 20260507034013 | 65 | 355 | 4.0 | 7.0 | 0.00 | 0.00 | 0.00 | 78 | 1013.5 |
| 20260507033513 | 65 | 110 | 3.0 | 11.0 | 0.00 | 0.00 | 0.00 | 78 | 1013.5 |
| 20260507033013 | 65 | 355 | 5.0 | 11.0 | 0.00 | 0.00 | 0.00 | 78 | 1013.3 |
| 20260507031513 | 65 | 321 | 2.0 | 5.0 | 0.00 | 0.00 | 0.00 | 78 | 1013.5 |
| 20260507031013 | 65 | 308 | 2.0 | 8.0 | 0.00 | 0.00 | 0.00 | 78 | 1013.6 |
| 20260507030513 | 65 | 324 | 1.0 | 8.0 | 0.00 | 0.00 | 0.00 | 77 | 1013.5 |
| 20260507030013 | 65 | 214 | 4.0 | 8.0 | 0.00 | 0.00 | 0.00 | 77 | 1013.2 |
| 20260507025513 | 66 | 143 | 3.0 | 7.0 | 0.00 | 0.00 | 0.00 | 77 | 1012.9 |
| 20260507025013 | 66 | 115 | 1.0 | 7.0 | 0.00 | 0.00 | 0.00 | 77 | 1013.0 |
| 20260507024513 | 66 | 107 | 3.0 | 6.0 | 0.00 | 0.00 | 0.00 | 77 | 1012.8 |
| 20260507024013 | 66 | 350 | 6.0 | 6.0 | 0.00 | 0.00 | 0.00 | 77 | 1012.7 |
| 20260507023513 | 66 | 80 | 1.0 | 4.0 | 0.00 | 0.00 | 0.00 | 77 | 1013.0 |
| 20260507023013 | 66 | 355 | 1.0 | 7.0 | 0.00 | 0.00 | 0.00 | 77 | 1013.0 |
| 20260507022513 | 66 | 344 | 1.0 | 7.0 | 0.00 | 0.00 | 0.00 | 77 | 1012.9 |
| 20260507021512 | 66 | 144 | 1.0 | 6.0 | 0.00 | 0.00 | 0.00 | 77 | 1012.4 |
| 20260507021013 | 66 | 327 | 1.0 | 3.0 | 0.00 | 0.00 | 0.00 | 77 | 1012.3 |
| 20260507020513 | 66 | 280 | 0.0 | 3.0 | 0.00 | 0.00 | 0.00 | 77 | 1012.4 |
| 20260507020012 | 66 | 101 | 0.0 | 3.0 | 0.00 | 0.00 | 0.00 | 77 | 1012.4 |
| 20260507015513 | 66 | 114 | 1.0 | 3.0 | 0.00 | 0.00 | 0.00 | 77 | 1012.3 |
| 20260507015012 | 66 | 16 | 0.0 | 3.0 | 0.00 | 0.00 | 0.00 | 77 | 1012.2 |
| 20260507014512 | 66 | 360 | 1.0 | 6.0 | 0.00 | 0.00 | 0.00 | 77 | 1012.0 |
| 20260507014012 | 66 | 319 | 3.0 | 6.0 | 0.00 | 0.00 | 0.00 | 77 | 1011.9 |
| 20260507013512 | 66 | 44 | 1.0 | 4.0 | 0.00 | 0.00 | 0.00 | 77 | 1011.9 |
| 20260507013012 | 66 | 342 | 4.0 | 4.0 | 0.00 | 0.00 | 0.00 | 77 | 1011.8 |
| 20260507012512 | 66 | 344 | 3.0 | 6.0 | 0.00 | 0.00 | 0.00 | 77 | 1011.6 |
| 20260507012012 | 66 | 342 | 3.0 | 6.0 | 0.00 | 0.00 | 0.00 | 77 | 1011.8 |
| 20260507011012 | 66 | 327 | 1.0 | 6.0 | 0.00 | 0.00 | 0.00 | 76 | 1011.7 |
| 20260507010512 | 66 | 355 | 6.0 | 8.0 | 0.00 | 0.00 | 0.00 | 76 | 1011.6 |
| 20260507010012 | 66 | 329 | 5.0 | 8.0 | 0.00 | 0.00 | 0.00 | 76 | 1011.4 |
| 20260507005512 | 66 | 330 | 4.0 | 6.0 | 0.00 | 0.00 | 0.00 | 76 | 1011.4 |
| 20260507005012 | 66 | 32 | 0.0 | 5.0 | 0.00 | 0.00 | 0.00 | 76 | 1011.3 |
| 20260507004512 | 66 | 13 | 1.0 | 9.0 | 0.00 | 0.00 | 0.00 | 76 | 1011.3 |
| 20260507004012 | 66 | 315 | 3.0 | 9.0 | 0.00 | 0.00 | 0.00 | 76 | 1011.0 |
| 20260507003512 | 66 | 331 | 3.0 | 5.0 | 0.00 | 0.00 | 0.00 | 76 | 1011.2 |
| 20260507003012 | 66 | 127 | 1.0 | 6.0 | 0.00 | 0.00 | 0.00 | 76 | 1011.0 |
| 20260507002512 | 66 | 285 | 3.0 | 8.0 | 0.00 | 0.00 | 0.00 | 76 | 1011.0 |
| 20260507002012 | 66 | 60 | 4.0 | 8.0 | 0.00 | 0.00 | 0.00 | 76 | 1011.3 |
| 20260507001511 | 66 | 338 | 1.0 | 6.0 | 0.00 | 0.00 | 0.00 | 76 | 1011.0 |
| 20260507001011 | 66 | 205 | 3.0 | 6.0 | 0.00 | 0.00 | 0.00 | 76 | 1010.9 |
| 20260507000512 | 66 | 5 | 2.0 | 6.0 | 0.00 | 0.00 | 0.00 | 76 | 1011.0 |
| 20260507000012 | 66 | 321 | 4.0 | 6.0 | 0.00 | 0.00 | 0.00 | 76 | 1010.9 |
| 20260506235511 | 66 | 28 | 2.0 | 9.0 | 0.00 | 0.00 | 0.00 | 76 | 1010.8 |
| 20260506235011 | 66 | 336 | 4.0 | 9.0 | 0.00 | 0.00 | 0.00 | 75 | 1010.9 |
| 20260506234511 | 66 | 119 | 4.0 | 9.0 | 0.00 | 0.00 | 0.00 | 75 | 1011.0 |
| 20260506234011 | 66 | 107 | 2.0 | 9.0 | 0.00 | 0.00 | 0.00 | 75 | 1010.9 |
| 20260506232511 | 67 | 39 | 2.0 | 12.0 | 0.00 | 0.00 | 0.00 | 74 | 1010.6 |
| 20260506232011 | 67 | 44 | 2.0 | 12.0 | 0.00 | 0.00 | 0.00 | 74 | 1010.6 |
| 20260506230511 | 67 | 333 | 6.0 | 9.0 | 0.00 | 0.00 | 0.00 | 73 | 1010.6 |
| 20260506230011 | 68 | 333 | 2.0 | 9.0 | 0.00 | 0.00 | 0.00 | 73 | 1010.7 |
| 20260506225511 | 68 | 30 | 2.0 | 8.0 | 0.00 | 0.00 | 0.00 | 73 | 1010.7 |
| 20260506225011 | 69 | 336 | 8.0 | 8.0 | 0.00 | 0.00 | 0.00 | 72 | 1010.5 |
| 20260506224511 | 69 | 360 | 5.0 | 12.0 | 0.00 | 0.00 | 0.00 | 72 | 1010.4 |
| 20260506224011 | 69 | 355 | 9.0 | 12.0 | 0.00 | 0.00 | 0.00 | 72 | 1010.5 |
| 20260506223511 | 69 | 336 | 3.0 | 12.0 | 0.00 | 0.00 | 0.00 | 71 | 1010.4 |
| 20260506222511 | 71 | 128 | 4.0 | 8.0 | 0.00 | 0.00 | 0.00 | 71 | 1010.2 |
| 20260506222011 | 71 | 344 | 4.0 | 8.0 | 0.00 | 0.00 | 0.00 | 71 | 1010.2 |